Location: Puketoi
(40.5833°S, 176.0167°E)
Time: 14:53:30
(UTC+00:00)

ATLAS 5 CENTAUR R/B - Pass Details

Date: 08 February 2023
Orbit: 460 x 1178 km, 63.3° (Epoch: 19 March)

Event Time Altitude Azimuth Distance (km) Brightness Sun altitude
Exits shadow 14:06:51 66° 275° (W) 1,260 2.8 -30.1°
Maximum altitude 14:07:40 72° 234° (SW) 1,217 2.9 -30.0°
Drops below altitude 10° 14:14:49 10° 149° (SSE) 2,919 5.9 -29.4°
Sets 14:17:22 0° 146° (SSE) 3,794 6.8 -29.1°
